Kezdőlap
METAR-TAF:

METAR-TAF

Repülőterek :

Dalcahue, Chile

földrajzi szélesség: 42-20-25S, földrajzi hosszúság: 073-42-56W, magasság: 161 m

Jelenlegi meteorológiai megfigyelések

A jelentés 45 perccel ezelõtt készült, 23:00 UTC
Dél-délkeleti szél 4 kt, keleti és déli között változik
Hőmérséklet 14°C
Páratartalom 55%
Légköri nyomás 1015 hPa

METAR: SCPQ 232300Z AUTO 15004KT 100V190 //// NCD 14/05 Q1015

Idő: 20:45 (23:45 UTC)


TAF: hiányzik

Meteorológiai megfigyelések és előrejelzések több, mint 4000 repülőtéren (METAR és TAF jelentéseket).

A térképen piros és sárga pontok jelzik az elérhető meteorológiai állomásokat.

Mozgassa az egeret a pont fölött, hogy megjelenjen az állomás neve.

Azután kattintson az időjárási megfigyelések és előrejelzések megtekintéséhez.

A térkép megváltoztatása: kattintson a fekete keresztel jelölt zöld gombra ráközelítéshez, a vonallal jelölt zöld gombra távolításhoz, vagy a zöld nyilakra a szomszédos térképek eléréséhez.


METAR-TAF: